Regional Weather Roundup
Issued by NWS Little Rock, AR

Home | Current Version | Previous Version | Graphics & Text | Print | Product List | Glossary On
Versions: 1 2 3 4 5 6 7 8 9 10 11 12 13 14 15 16 17 18 19 20 21 22 23 24 25 26 27 28 29 30 31 32 33 34 35 36 37 38 39 40 41 42 43 44 45 46 47 48 49 50
354
ASUS44 KLZK 240612
RWRLZK

WEATHER ROUNDUP FOR ARKANSAS
NATIONAL WEATHER SERVICE LITTLE ROCK AR
1200 AM CST TUE JAN 24 2017

NOTE: "FAIR" INDICATES FEW OR NO CLOUDS BELOW 12,000 FEET WITH NO
SIGNIFICANT WEATHER AND/OR OBSTRUCTIONS TO VISIBILITY.

ARZ001-003-010-029-240700-
NORTHWEST ARKANSAS

CITY           SKY/WX    TMP DP  RH WIND       PRES   REMARKS
FAYETTEVILLE   CLEAR     31  30  96 CALM      29.81F
6HR MIN TEMP:  30; 6HR MAX TEMP:  44;

FORT SMITH     CLEAR     39  35  86 NE5       29.82F
6HR MIN TEMP:  39; 6HR MAX TEMP:  53;

HARRISON       CLEAR     35  32  88 S6        29.84S WCI  30
6HR MIN TEMP:  34; 6HR MAX TEMP:  46;

BENTONVILLE    CLEAR    N/A N/A N/A SE7       29.80F
ROGERS         CLEAR     39  36  89 E10       29.81F
6HR MIN TEMP:  39; 6HR MAX TEMP:  48;

SILOAM SPGS      N/A    N/A N/A N/A MISG        N/A
HIGHFILL       CLEAR     40  32  73 E5        29.80F
6HR MIN TEMP:  37; 6HR MAX TEMP:  49;

$$

ARZ004-005-016-240700-
NORTH CENTRAL ARKANSAS

CITY           SKY/WX    TMP DP  RH WIND       PRES   REMARKS
BATESVILLE     CLEAR     36  32  87 CALM      29.88S
6HR MIN TEMP:  36; 6HR MAX TEMP:  48;

FLIPPIN        CLEAR     34  28  80 NE3       29.84R
6HR MIN TEMP:  34; 6HR MAX TEMP:  45;

MTN HOME       CLEAR     35  32  88 CALM      29.85R
6HR MIN TEMP:  34; 6HR MAX TEMP:  46;

$$

ARZ040-041-240700-
WEST CENTRAL ARKANSAS

CITY           SKY/WX    TMP DP  RH WIND       PRES   REMARKS
MENA           CLEAR     36  36 100 CALM      29.84F
MOUNT IDA      CLEAR     36  33  89 CALM      29.82F
6HR MIN TEMP:  35; 6HR MAX TEMP:  50;

$$

ARZ009-017-025-026-028-240700-
NORTHEAST ARKANSAS

CITY           SKY/WX    TMP DP  RH WIND       PRES   REMARKS
CORNING        FAIR      37  37 100 NE3       29.89R
JONESBORO      CLEAR     37  35  92 NE3       29.87F
6HR MIN TEMP:  37; 6HR MAX TEMP:  49;

NEWPORT        CLEAR     40  38  93 E5        29.87F
6HR MIN TEMP:  40; 6HR MAX TEMP:  48;

WALNUT RIDGE   CLEAR     37  34  87 CALM      29.87S
6HR MIN TEMP:  37; 6HR MAX TEMP:  46;

$$

ARZ022-023-033-042-044-240700-
CENTRAL ARKANSAS

CITY           SKY/WX    TMP DP  RH WIND       PRES   REMARKS
LITTLE ROCK    CLEAR     40  38  93 SW5       29.88R
6HR MIN TEMP:  39; 6HR MAX TEMP:  53;

N LITTLE ROCK    N/A     44  37  77 CALM      29.89R
6HR MIN TEMP:  43; 6HR MAX TEMP:  50;

JACKSONVILLE   CLEAR     36  35  95 CALM      29.86S
6HR MIN TEMP:  36; 6HR MAX TEMP:  49;

SEARCY         CLEAR     36  36 100 CALM      29.89S
6HR MIN TEMP:  35; 6HR MAX TEMP:  50;

HOT SPRINGS    CLEAR     38  35  89 CALM      29.86F
6HR MIN TEMP:  38; 6HR MAX TEMP:  53;

RUSSELLVILLE   CLEAR     35  34  96 CALM      29.86R
6HR MIN TEMP:  34; 6HR MAX TEMP:  47;

CLINTON        FAIR      32  32 100 CALM      29.88R FOG
$$

ARZ036-240700-
EAST ARKANSAS

CITY           SKY/WX    TMP DP  RH WIND       PRES   REMARKS
WEST MEMPHIS   CLEAR     39  39 100 CALM      29.86F
6HR MIN TEMP:  38; 6HR MAX TEMP:  49;

$$

ARZ050-053-066-070-073-240700-
SOUTHWEST ARKANSAS

CITY           SKY/WX    TMP DP  RH WIND       PRES   REMARKS
ARKADELPHIA    FAIR      40  40 100 CALM      29.87F
6HR MIN TEMP:  39; 6HR MAX TEMP:  53;

CAMDEN         CLEAR     37  36  93 CALM      29.88F
TEXARKANA      CLEAR     48  39  71 SE6       29.85S
6HR MIN TEMP:  46; 6HR MAX TEMP:  53;

EL DORADO        N/A    N/A N/A N/A MISG      29.88S
DE QUEEN       CLEAR     38  38 100 E3        29.84S
6HR MIN TEMP:  36; 6HR MAX TEMP:  57;

$$

ARZ056-057-069-240700-
SOUTHEAST ARKANSAS

CITY           SKY/WX    TMP DP  RH WIND       PRES   REMARKS
PINE BLUFF     CLEAR     43  40  89 CALM      29.88S
6HR MIN TEMP:  42; 6HR MAX TEMP:  53;

STUTTGART      CLEAR     45  37  76 S6        29.88S
6HR MIN TEMP:  43; 6HR MAX TEMP:  52;

MONTICELLO     CLEAR     43  40  89 S3        29.88S
6HR MIN TEMP:  43; 6HR MAX TEMP:  51;


$$






USA.gov is the U.S. government's official web portal to all federal, state and local government web resources and services.